Location: Kirtland Hills
(41.6239°N, 81.3071°W)
Time: 08:56:55
(UTC+00:00)

Okean O Rocket - Pass Details

Date: 29 October 2020
Orbit: 623 x 644 km, 98.2° (Epoch: 26 November)

Event Time Altitude Azimuth Distance (km) Brightness Sun altitude
Rises 23:50:23 0° 201° (SSW) 2,907 5.3 -16.8°
Reaches altitude 10° 23:53:04 10° 218° (SW) 2,001 4.7 -17.3°
Maximum altitude 23:56:17 20° 266° (W) 1,449 4.4 -17.9°
Drops below altitude 10° 23:59:31 10° 314° (NW) 2,005 4.8 -18.5°
Sets 00:02:13 0° 331° (NNW) 2,915 5.4 -19.1°
